Regional Weather Roundup
Issued by NWS

Home | Current Version | Previous Version | Graphics & Text | Print | Product List | Glossary Off
Versions: 1 2 3 4 5 6 7 8 9 10 11 12 13 14 15 16 17 18 19 20 21 22 23 24 25 26 27 28 29 30 31 32 33 34 35 36 37 38 39 40 41 42 43 44 45 46 47 48 49 50

000
ASUS43 KTOP 210859
RWRKS

WEATHER ROUNDUP FOR KANSAS
NATIONAL WEATHER SERVICE GOODLAND KS
300 AM CST SUN DEC 21 2014

NOTE:  "FAIR" INDICATES FEW OR NO CLOUDS BELOW 12,000 FEET WITH NO
SIGNIFICANT WEATHER AND/OR OBSTRUCTIONS TO VISIBILITY.

KSZ001>006-013>018-027>032-041>047-211000-
NORTHWEST KANSAS

CITY           SKY/WX    TMP DP  RH WIND       PRES   REMARKS
GOODLAND       CLOUDY    32  28  85 W3        29.87F
HAYS           MOCLDY    28  21  74 CALM      29.97R VSB 3/4
HILL CITY      PTCLDY    31  29  92 SW3       29.93F FOG
RUSSELL        PTCLDY    33  32  96 SW9       29.95S
$$

KSZ061>065-074>080-084>089-211000-
SOUTHWEST KANSAS

CITY           SKY/WX    TMP DP  RH WIND       PRES   REMARKS
DODGE CITY     FOG       36  34  92 S18       29.95R VSB 1/4 WCI  26
ELKHART          N/A    N/A N/A N/A MISG        N/A
GARDEN CITY    PTCLDY    28  28 100 S7        29.91F
GREAT BEND     CLOUDY    37  34  87 S15       29.97F WCI  28
LIBERAL        MOCLDY    30  27  86 S7        29.94F
$$

KSZ066>073-081>083-090>101-211000-
SOUTHEAST KANSAS

CITY           SKY/WX    TMP DP  RH WIND       PRES   REMARKS
CHANUTE        CLOUDY    40  37  89 S13       30.10F WCI  32
COFFEYVILLE    CLOUDY    42  38  85 S13       30.11F
HUTCHINSON     CLOUDY    40  37  89 S10       30.01F WCI  33
MEDICINE LODGE   N/A     39  39 100 S7        30.02F
NEWTON         CLOUDY    39  34  81 S13       30.05S WCI  32
PARSONS        CLOUDY    41  38  89 S10       30.12S
WICHITA INTL   CLOUDY    42  37  82 S14       30.04F
WICHITA JABRA  CLOUDY    40  36  86 S12       30.04F WCI  33
WINFIELD       CLOUDY    41  37  86 S9        30.08F
$$

KSZ007>012-019>026-033>040-048>060-102>105-211000-
NORTHEAST KANSAS

CITY           SKY/WX    TMP DP  RH WIND       PRES   REMARKS
CONCORDIA      MOCLDY    36  36 100 S12       29.97S WCI  28
EMPORIA        CLOUDY    37  35  92 S8        30.07R
LAWRENCE       CLOUDY    36  32  85 S7        30.10R
MANHATTAN      PTCLDY    41  36  82 S7        30.02F
OLATHE IND     MOCLDY    32  32 100 S5        30.10R FOG
OLATHE EXE     CLOUDY    35  33  92 S8        30.09R FOG
SALINA         PTCLDY    36  33  89 S8        30.00F
TOPEKA BILLARD CLOUDY   N/A N/A N/A S7        30.08F
TOPEKA FORBES  CLOUDY    37  33  85 S8        30.07F
$$


USA.gov is the U.S. government's official web portal to all federal, state and local government web resources and services.